| time (UTC) | temp C | wind direction | speed KPH | gust KPH | rain 1hr cm | rain 24hr cm | rain mn cm | humidity % | barometer mb |
| 20260510043803 | 16 | 278 | 0.0 | 0.0 | 0.00 | 0.00 | 0.00 | 73 | 1029.2 |
| 20260510042036 | 17 | 276 | 0.0 | 0.0 | 0.00 | 0.00 | 0.00 | 71 | 1029.3 |
| 20260510041538 | 17 | 282 | 0.0 | 0.0 | 0.00 | 0.00 | 0.00 | 70 | 1029.2 |
| 20260510041019 | 17 | 224 | 0.0 | 0.0 | 0.00 | 0.00 | 0.00 | 71 | 1029.4 |
| 20260510035900 | 17 | 224 | 0.0 | 0.0 | 0.00 | 0.00 | 0.00 | 68 | 1029.4 |
| 20260510035400 | 17 | 224 | 0.0 | 0.0 | 0.00 | 0.00 | 0.00 | 68 | 1029.5 |
| 20260510034907 | 17 | 224 | 0.0 | 1.6 | 0.00 | 0.00 | 0.00 | 69 | 1029.5 |
| 20260510034412 | 17 | 227 | 0.0 | 0.0 | 0.00 | 0.00 | 0.00 | 69 | 1029.5 |
| 20260510033857 | 17 | 247 | 0.0 | 0.0 | 0.00 | 0.00 | 0.00 | 69 | 1029.5 |
| 20260510032702 | 16 | 175 | 0.0 | 4.8 | 0.00 | 0.00 | 0.00 | 68 | 1029.5 |
| 20260510031517 | 16 | 278 | 0.0 | 4.8 | 0.00 | 0.00 | 0.00 | 68 | 1029.5 |
| 20260510031027 | 16 | 182 | 0.0 | 4.8 | 0.00 | 0.00 | 0.00 | 67 | 1029.6 |
| 20260510030519 | 16 | 224 | 0.0 | 4.8 | 0.00 | 0.00 | 0.00 | 68 | 1029.6 |
| 20260510030013 | 16 | 229 | 0.0 | 4.8 | 0.00 | 0.00 | 0.00 | 67 | 1029.6 |
| 20260510025502 | 16 | 139 | 0.0 | 1.6 | 0.00 | 0.00 | 0.00 | 68 | 1029.7 |
| 20260510025001 | 16 | 130 | 0.0 | 0.0 | 0.00 | 0.00 | 0.00 | 69 | 1029.7 |
| 20260510023842 | 16 | 187 | 0.0 | 1.6 | 0.00 | 0.00 | 0.00 | 72 | 1030.0 |
| 20260510023343 | 16 | 187 | 0.0 | 1.6 | 0.00 | 0.00 | 0.00 | 72 | 1030.0 |
| 20260510022826 | 16 | 158 | 0.0 | 4.8 | 0.00 | 0.00 | 0.00 | 72 | 1030.1 |
| 20260510022322 | 16 | 198 | 0.0 | 3.2 | 0.00 | 0.00 | 0.00 | 72 | 1030.1 |
| 20260510021819 | 16 | 271 | 0.0 | 3.2 | 0.00 | 0.00 | 0.00 | 72 | 1030.1 |
| 20260510021309 | 16 | 137 | 0.0 | 1.6 | 0.00 | 0.00 | 0.00 | 73 | 1030.2 |
| 20260510020819 | 16 | 317 | 0.0 | 0.0 | 0.00 | 0.00 | 0.00 | 73 | 1030.3 |
| 20260510020307 | 16 | 115 | 0.0 | 4.8 | 0.00 | 0.00 | 0.00 | 73 | 1030.3 |
| 20260510015804 | 16 | 142 | 0.0 | 4.8 | 0.00 | 0.00 | 0.00 | 74 | 1030.4 |
| 20260510015244 | 16 | 129 | 0.0 | 4.8 | 0.00 | 0.00 | 0.00 | 75 | 1030.5 |
| 20260510014745 | 16 | 204 | 1.6 | 6.4 | 0.00 | 0.00 | 0.00 | 74 | 1030.5 |
| 20260510014242 | 15 | 231 | 1.6 | 6.4 | 0.00 | 0.00 | 0.00 | 74 | 1030.6 |
| 20260510013746 | 15 | 161 | 1.6 | 6.4 | 0.00 | 0.00 | 0.00 | 74 | 1030.7 |
| 20260510013251 | 16 | 140 | 0.0 | 6.4 | 0.00 | 0.00 | 0.00 | 75 | 1030.7 |
| 20260510011426 | 15 | 147 | 0.0 | 6.4 | 0.00 | 0.00 | 0.00 | 75 | 1030.8 |
| 20260510010923 | 15 | 222 | 0.0 | 4.8 | 0.00 | 0.00 | 0.00 | 76 | 1030.7 |
| 20260510010407 | 15 | 256 | 0.0 | 4.8 | 0.00 | 0.00 | 0.00 | 76 | 1030.7 |
| 20260510005218 | 15 | 150 | 0.0 | 4.8 | 0.00 | 0.00 | 0.00 | 77 | 1030.6 |
| 20260510002759 | 15 | 189 | 0.0 | 1.6 | 0.00 | 0.00 | 0.00 | 80 | 1030.7 |
| 20260510002306 | 15 | 278 | 0.0 | 0.0 | 0.00 | 0.00 | 0.00 | 80 | 1030.8 |
| 20260510001808 | 15 | 269 | 0.0 | 4.8 | 0.00 | 0.00 | 0.00 | 80 | 1030.7 |
| 20260510001253 | 16 | 281 | 0.0 | 4.8 | 0.00 | 0.00 | 0.00 | 79 | 1030.6 |
| 20260510000744 | 16 | 270 | 0.0 | 4.8 | 0.00 | 0.00 | 0.00 | 79 | 1030.7 |
| 20260510000226 | 16 | 303 | 0.0 | 4.8 | 0.00 | 0.00 | 0.00 | 79 | 1030.6 |
| 20260509235707 | 16 | 312 | 0.0 | 0.0 | 0.00 | 0.00 | 0.00 | 78 | 1030.6 |
| 20260509235159 | 16 | 268 | 0.0 | 0.0 | 0.00 | 0.00 | 0.00 | 78 | 1030.6 |
| 20260509234653 | 16 | 268 | 0.0 | 0.0 | 0.00 | 0.00 | 0.00 | 77 | 1030.6 |
| 20260509234201 | 16 | 268 | 0.0 | 0.0 | 0.00 | 0.00 | 0.00 | 77 | 1030.6 |
| 20260509233705 | 15 | 224 | 0.0 | 0.0 | 0.00 | 0.00 | 0.00 | 76 | 1030.6 |
| 20260509233158 | 15 | 212 | 0.0 | 0.0 | 0.00 | 0.00 | 0.00 | 76 | 1030.6 |
| 20260509232647 | 15 | 212 | 0.0 | 0.0 | 0.00 | 0.00 | 0.00 | 75 | 1030.6 |
| 20260509232131 | 15 | 212 | 0.0 | 0.0 | 0.00 | 0.00 | 0.00 | 75 | 1030.5 |
| 20260509231640 | 15 | 212 | 0.0 | 0.0 | 0.00 | 0.00 | 0.00 | 76 | 1030.5 |
| 20260509231135 | 15 | 212 | 0.0 | 0.0 | 0.00 | 0.00 | 0.00 | 76 | 1030.5 |
| 20260509230624 | 15 | 212 | 0.0 | 0.0 | 0.00 | 0.00 | 0.00 | 76 | 1030.5 |
| 20260509230110 | 15 | 212 | 0.0 | 0.0 | 0.00 | 0.00 | 0.00 | 76 | 1030.5 |
| 20260509225607 | 15 | 212 | 0.0 | 0.0 | 0.00 | 0.00 | 0.00 | 75 | 1030.5 |
| 20260509225059 | 15 | 212 | 0.0 | 0.0 | 0.00 | 0.00 | 0.00 | 76 | 1030.4 |
| 20260509224541 | 15 | 212 | 0.0 | 6.4 | 0.00 | 0.00 | 0.00 | 75 | 1030.5 |
| 20260509224022 | 14 | 127 | 0.0 | 6.4 | 0.00 | 0.00 | 0.00 | 76 | 1030.4 |
| 20260509223514 | 14 | 114 | 0.0 | 1.6 | 0.00 | 0.00 | 0.00 | 77 | 1030.4 |
| 20260509222955 | 14 | 209 | 0.0 | 1.6 | 0.00 | 0.00 | 0.00 | 78 | 1030.3 |
| 20260509221753 | 13 | 273 | 0.0 | 0.0 | 0.00 | 0.00 | 0.00 | 80 | 1030.2 |
| 20260509221250 | 13 | 273 | 0.0 | 0.0 | 0.00 | 0.00 | 0.00 | 81 | 1030.1 |
| 20260509220741 | 13 | 273 | 0.0 | 0.0 | 0.00 | 0.03 | 0.00 | 82 | 1030.1 |
| 20260509215609 | 13 | 33 | 0.0 | 0.0 | 0.00 | 0.03 | 0.00 | 84 | 1029.9 |
| 20260509215100 | 13 | 32 | 0.0 | 0.0 | 0.00 | 0.03 | 0.00 | 85 | 1029.8 |
| 20260509214609 | 13 | 32 | 0.0 | 0.0 | 0.00 | 0.03 | 0.00 | 85 | 1029.8 |
| 20260509214101 | 13 | 32 | 0.0 | 0.0 | 0.00 | 0.03 | 0.00 | 85 | 1029.7 |
| 20260509213542 | 13 | 32 | 0.0 | 0.0 | 0.00 | 0.03 | 0.00 | 85 | 1029.6 |
| 20260509213044 | 13 | 17 | 0.0 | 1.6 | 0.00 | 0.03 | 0.00 | 85 | 1029.6 |
| 20260509212537 | 13 | 48 | 0.0 | 0.0 | 0.00 | 0.03 | 0.00 | 85 | 1029.6 |
| 20260509212044 | 13 | 61 | 0.0 | 0.0 | 0.00 | 0.03 | 0.00 | 85 | 1029.5 |
| 20260509211543 | 13 | 61 | 0.0 | 0.0 | 0.00 | 0.03 | 0.00 | 85 | 1029.5 |
| 20260509211040 | 13 | 61 | 0.0 | 0.0 | 0.00 | 0.03 | 0.00 | 85 | 1029.4 |
| 20260509210544 | 13 | 61 | 0.0 | 0.0 | 0.00 | 0.03 | 0.00 | 85 | 1029.3 |
| 20260509210036 | 13 | 61 | 0.0 | 0.0 | 0.00 | 0.03 | 0.00 | 85 | 1029.3 |
| 20260509205545 | 13 | 61 | 0.0 | 0.0 | 0.00 | 0.03 | 0.00 | 85 | 1029.2 |
| 20260509204417 | 13 | 46 | 0.0 | 0.0 | 0.00 | 0.03 | 0.00 | 84 | 1029.2 |
| 20260509203914 | 13 | 46 | 0.0 | 0.0 | 0.00 | 0.03 | 0.00 | 84 | 1029.1 |
| 20260509202119 | 13 | 87 | 0.0 | 0.0 | 0.00 | 0.03 | 0.00 | 83 | 1029.0 |
| 20260509201610 | 13 | 87 | 0.0 | 0.0 | 0.00 | 0.03 | 0.00 | 83 | 1028.9 |
| 20260509201102 | 13 | 87 | 0.0 | 0.0 | 0.00 | 0.03 | 0.00 | 83 | 1028.9 |
| 20260509200550 | 13 | 87 | 0.0 | 0.0 | 0.00 | 0.03 | 0.00 | 83 | 1028.9 |
| 20260509200052 | 13 | 87 | 0.0 | 0.0 | 0.00 | 0.03 | 0.00 | 83 | 1028.8 |
| 20260509195547 | 13 | 143 | 0.0 | 0.0 | 0.00 | 0.03 | 0.00 | 83 | 1028.8 |
| 20260509195040 | 14 | 143 | 0.0 | 0.0 | 0.00 | 0.03 | 0.00 | 83 | 1028.7 |
| 20260509194546 | 14 | 143 | 0.0 | 0.0 | 0.00 | 0.03 | 0.00 | 83 | 1028.7 |
| 20260509194051 | 14 | 143 | 0.0 | 0.0 | 0.00 | 0.03 | 0.00 | 83 | 1028.6 |
| 20260509193554 | 14 | 143 | 0.0 | 0.0 | 0.00 | 0.03 | 0.00 | 83 | 1028.6 |
| 20260509192429 | 13 | 139 | 0.0 | 0.0 | 0.00 | 0.05 | 0.00 | 83 | 1028.4 |
| 20260509191927 | 13 | 139 | 0.0 | 0.0 | 0.00 | 0.05 | 0.00 | 83 | 1028.4 |
| 20260509191435 | 13 | 139 | 0.0 | 0.0 | 0.00 | 0.05 | 0.00 | 83 | 1028.4 |
| 20260509190943 | 13 | 139 | 0.0 | 0.0 | 0.00 | 0.05 | 0.00 | 83 | 1028.3 |
| 20260509190445 | 13 | 131 | 0.0 | 0.0 | 0.00 | 0.05 | 0.00 | 83 | 1028.3 |
| 20260509185933 | 13 | 131 | 0.0 | 3.2 | 0.00 | 0.05 | 0.00 | 83 | 1028.2 |
| 20260509185415 | 13 | 166 | 0.0 | 0.0 | 0.00 | 0.05 | 0.00 | 84 | 1028.2 |
| 20260509184902 | 13 | 142 | 0.0 | 1.6 | 0.00 | 0.05 | 0.00 | 84 | 1028.1 |
| 20260509184404 | 13 | 216 | 0.0 | 0.0 | 0.00 | 0.05 | 0.00 | 84 | 1028.1 |
| 20260509183913 | 13 | 138 | 0.0 | 4.8 | 0.00 | 0.05 | 0.00 | 84 | 1028.1 |
| 20260509183406 | 13 | 131 | 0.0 | 4.8 | 0.00 | 0.05 | 0.00 | 85 | 1028.1 |
| 20260509182909 | 13 | 117 | 0.0 | 1.6 | 0.00 | 0.05 | 0.00 | 85 | 1028.0 |
| 20260509182405 | 13 | 133 | 0.0 | 0.0 | 0.00 | 0.05 | 0.00 | 86 | 1028.0 |
| 20260509181910 | 13 | 135 | 0.0 | 4.8 | 0.00 | 0.05 | 0.00 | 86 | 1027.8 |
| 20260509181347 | 13 | 142 | 0.0 | 4.8 | 0.00 | 0.05 | 0.00 | 86 | 1027.7 |
| 20260509180853 | 13 | 201 | 0.0 | 3.2 | 0.00 | 0.05 | 0.00 | 86 | 1027.8 |
| 20260509180343 | 13 | 140 | 0.0 | 3.2 | 0.00 | 0.05 | 0.00 | 86 | 1027.8 |
| 20260509175843 | 13 | 176 | 0.0 | 4.8 | 0.00 | 0.05 | 0.00 | 86 | 1027.7 |
| 20260509175343 | 13 | 215 | 0.0 | 4.8 | 0.00 | 0.05 | 0.00 | 86 | 1027.7 |
| 20260509174827 | 14 | 167 | 0.0 | 4.8 | 0.00 | 0.05 | 0.00 | 86 | 1027.7 |
| 20260509174311 | 14 | 151 | 0.0 | 4.8 | 0.00 | 0.08 | 0.00 | 86 | 1027.7 |
| 20260509173800 | 14 | 211 | 0.0 | 4.8 | 0.00 | 0.08 | 0.00 | 87 | 1027.7 |
| 20260509173303 | 14 | 158 | 0.0 | 4.8 | 0.00 | 0.08 | 0.00 | 87 | 1027.7 |
| 20260509172744 | 14 | 200 | 0.0 | 4.8 | 0.00 | 0.08 | 0.00 | 87 | 1027.7 |
| 20260509172227 | 14 | 187 | 0.0 | 4.8 | 0.00 | 0.08 | 0.00 | 87 | 1027.8 |
| 20260509171736 | 14 | 133 | 0.0 | 0.0 | 0.00 | 0.08 | 0.00 | 88 | 1027.8 |
| 20260509171240 | 13 | 128 | 0.0 | 4.8 | 0.00 | 0.08 | 0.00 | 89 | 1027.8 |
| 20260509170725 | 13 | 139 | 0.0 | 1.6 | 0.00 | 0.08 | 0.00 | 89 | 1027.8 |
| 20260509170216 | 13 | 154 | 0.0 | 6.4 | 0.00 | 0.08 | 0.00 | 89 | 1027.8 |
| 20260509165720 | 13 | 154 | 0.0 | 6.4 | 0.00 | 0.08 | 0.00 | 89 | 1027.8 |
| 20260509164550 | 13 | 132 | 0.0 | 3.2 | 0.00 | 0.08 | 0.00 | 90 | 1027.9 |
| 20260509164043 | 13 | 127 | 0.0 | 3.2 | 0.00 | 0.08 | 0.00 | 90 | 1027.9 |
| 20260509163532 | 13 | 133 | 0.0 | 3.2 | 0.00 | 0.08 | 0.00 | 90 | 1027.9 |
| 20260509162350 | 14 | 176 | 0.0 | 4.8 | 0.00 | 0.08 | 0.00 | 90 | 1028.0 |
| 20260509161838 | 14 | 176 | 0.0 | 4.8 | 0.00 | 0.08 | 0.00 | 90 | 1028.0 |
| 20260509160718 | 14 | 225 | 0.0 | 4.8 | 0.00 | 0.08 | 0.00 | 91 | 1028.1 |
| 20260509160202 | 14 | 145 | 0.0 | 0.0 | 0.00 | 0.08 | 0.00 | 90 | 1028.1 |
| 20260509155656 | 14 | 179 | 0.0 | 3.2 | 0.00 | 0.08 | 0.00 | 90 | 1028.0 |
| 20260509154519 | 13 | 220 | 0.0 | 1.6 | 0.00 | 0.08 | 0.00 | 89 | 1028.1 |
| 20260509154003 | 13 | 220 | 0.0 | 1.6 | 0.00 | 0.08 | 0.00 | 89 | 1028.1 |
| 20260509152817 | 13 | 189 | 0.0 | 9.7 | 0.00 | 0.08 | 0.00 | 89 | 1028.1 |
| 20260509152319 | 13 | 242 | 1.6 | 9.7 | 0.00 | 0.08 | 0.00 | 88 | 1028.1 |
| 20260509151825 | 14 | 212 | 3.2 | 9.7 | 0.00 | 0.08 | 0.00 | 88 | 1028.1 |
| 20260509151326 | 14 | 151 | 3.2 | 9.7 | 0.00 | 0.08 | 0.00 | 88 | 1028.2 |
| 20260509150826 | 14 | 172 | 1.6 | 8.0 | 0.00 | 0.08 | 0.00 | 88 | 1028.2 |
| 20260509150313 | 14 | 236 | 1.6 | 9.7 | 0.00 | 0.08 | 0.00 | 87 | 1028.1 |
| 20260509145806 | 14 | 145 | 3.2 | 9.7 | 0.00 | 0.08 | 0.00 | 87 | 1028.1 |
| 20260509145313 | 14 | 190 | 3.2 | 9.7 | 0.00 | 0.08 | 0.00 | 87 | 1028.1 |
| 20260509144814 | 14 | 192 | 1.6 | 9.7 | 0.00 | 0.08 | 0.00 | 87 | 1028.1 |
| 20260509143641 | 14 | 132 | 1.6 | 6.4 | 0.00 | 0.08 | 0.00 | 87 | 1028.1 |
| 20260509143145 | 15 | 183 | 0.0 | 6.4 | 0.00 | 0.08 | 0.00 | 87 | 1028.2 |
| 20260509142630 | 15 | 152 | 0.0 | 6.4 | 0.00 | 0.08 | 0.00 | 87 | 1028.2 |
| 20260509142139 | 14 | 195 | 1.6 | 6.4 | 0.00 | 0.08 | 0.00 | 87 | 1028.2 |
| 20260509141629 | 14 | 186 | 0.0 | 6.4 | 0.00 | 0.08 | 0.00 | 88 | 1028.2 |
| 20260509141133 | 14 | 200 | 0.0 | 6.4 | 0.00 | 0.08 | 0.00 | 88 | 1028.1 |
| 20260509135409 | 14 | 183 | 0.0 | 4.8 | 0.00 | 0.08 | 0.08 | 89 | 1028.1 |
| 20260509134244 | 14 | 129 | 0.0 | 4.8 | 0.00 | 0.08 | 0.08 | 89 | 1028.1 |
| 20260509133753 | 14 | 191 | 0.0 | 4.8 | 0.00 | 0.08 | 0.08 | 88 | 1028.0 |
| 20260509133253 | 14 | 125 | 0.0 | 3.2 | 0.00 | 0.08 | 0.08 | 89 | 1028.1 |
| 20260509132739 | 14 | 187 | 0.0 | 0.0 | 0.00 | 0.08 | 0.08 | 88 | 1028.1 |
| 20260509132230 | 14 | 225 | 0.0 | 6.4 | 0.00 | 0.08 | 0.08 | 88 | 1028.2 |
| 20260509131722 | 14 | 210 | 1.6 | 6.4 | 0.00 | 0.08 | 0.08 | 88 | 1028.2 |
| 20260509131220 | 14 | 195 | 0.0 | 6.4 | 0.00 | 0.08 | 0.08 | 88 | 1028.2 |
| 20260509130719 | 14 | 165 | 0.0 | 8.0 | 0.00 | 0.08 | 0.08 | 88 | 1028.2 |
| 20260509130225 | 14 | 165 | 0.0 | 8.0 | 0.00 | 0.08 | 0.08 | 88 | 1028.2 |
| 20260509125732 | 15 | 205 | 0.0 | 8.0 | 0.00 | 0.08 | 0.08 | 88 | 1028.2 |
| 20260509125216 | 15 | 132 | 0.0 | 8.0 | 0.00 | 0.08 | 0.08 | 88 | 1028.2 |
| 20260509124723 | 15 | 246 | 0.0 | 4.8 | 0.00 | 0.08 | 0.08 | 88 | 1028.2 |
| 20260509124204 | 14 | 188 | 0.0 | 4.8 | 0.00 | 0.08 | 0.08 | 88 | 1028.2 |
| 20260509123705 | 14 | 191 | 0.0 | 3.2 | 0.00 | 0.08 | 0.08 | 88 | 1028.2 |
| 20260509122535 | 14 | 143 | 0.0 | 0.0 | 0.00 | 0.08 | 0.08 | 87 | 1028.2 |
| 20260509122031 | 14 | 143 | 1.6 | 0.0 | 0.00 | 0.08 | 0.08 | 87 | 1028.2 |
| 20260509121534 | 15 | 174 | 1.6 | 8.0 | 0.00 | 0.08 | 0.08 | 87 | 1028.2 |
| 20260509121021 | 15 | 143 | 0.0 | 8.0 | 0.00 | 0.08 | 0.08 | 87 | 1028.2 |
| 20260509120524 | 15 | 126 | 0.0 | 8.0 | 0.00 | 0.08 | 0.08 | 87 | 1028.3 |
| 20260509120010 | 15 | 220 | 0.0 | 8.0 | 0.00 | 0.08 | 0.08 | 86 | 1028.3 |
| 20260509115450 | 15 | 248 | 0.0 | 8.0 | 0.00 | 0.08 | 0.08 | 87 | 1028.2 |
| 20260509114955 | 15 | 129 | 0.0 | 1.6 | 0.00 | 0.08 | 0.08 | 86 | 1028.2 |
| 20260509114450 | 15 | 342 | 0.0 | 0.0 | 0.00 | 0.08 | 0.08 | 86 | 1028.1 |
| 20260509113959 | 15 | 149 | 0.0 | 0.0 | 0.00 | 0.08 | 0.08 | 86 | 1028.1 |
| 20260509113441 | 15 | 186 | 0.0 | 8.0 | 0.00 | 0.08 | 0.08 | 86 | 1028.0 |
| 20260509112943 | 15 | 191 | 0.0 | 6.4 | 0.00 | 0.08 | 0.08 | 86 | 1027.9 |
| 20260509112425 | 15 | 191 | 0.0 | 6.4 | 0.00 | 0.08 | 0.08 | 86 | 1027.9 |
| 20260509111928 | 15 | 191 | 0.0 | 6.4 | 0.00 | 0.08 | 0.08 | 86 | 1028.0 |
| 20260509111424 | 15 | 144 | 0.0 | 6.4 | 0.00 | 0.08 | 0.08 | 86 | 1027.9 |
| 20260509110925 | 15 | 132 | 0.0 | 6.4 | 0.00 | 0.08 | 0.08 | 86 | 1027.9 |
| 20260509110406 | 15 | 170 | 0.0 | 4.8 | 0.00 | 0.08 | 0.08 | 86 | 1027.9 |
| 20260509105859 | 15 | 163 | 0.0 | 3.2 | 0.00 | 0.08 | 0.08 | 86 | 1027.8 |
| 20260509105359 | 15 | 156 | 0.0 | 0.0 | 0.00 | 0.08 | 0.08 | 86 | 1027.8 |
| 20260509103900 | 15 | 168 | 0.0 | 3.2 | 0.00 | 0.08 | 0.08 | 87 | 1027.8 |
| 20260509103359 | 14 | 185 | 0.0 | 0.0 | 0.00 | 0.08 | 0.08 | 87 | 1027.7 |
| 20260509102856 | 14 | 175 | 0.0 | 0.0 | 0.00 | 0.08 | 0.08 | 87 | 1027.7 |
| 20260509102338 | 14 | 175 | 0.0 | 0.0 | 0.00 | 0.08 | 0.08 | 87 | 1027.7 |
| 20260509101828 | 14 | 175 | 0.0 | 0.0 | 0.00 | 0.08 | 0.08 | 87 | 1027.7 |
| 20260509101333 | 14 | 175 | 0.0 | 0.0 | 0.00 | 0.08 | 0.08 | 87 | 1027.7 |
| 20260509100816 | 14 | 175 | 0.0 | 0.0 | 0.00 | 0.08 | 0.08 | 87 | 1027.7 |
| 20260509100321 | 14 | 151 | 0.0 | 0.0 | 0.00 | 0.08 | 0.08 | 87 | 1027.8 |
| 20260509095808 | 14 | 141 | 0.0 | 0.0 | 0.00 | 0.08 | 0.08 | 87 | 1027.7 |
| 20260509095314 | 14 | 147 | 0.0 | 6.4 | 0.00 | 0.08 | 0.08 | 87 | 1027.7 |
| 20260509094818 | 14 | 153 | 0.0 | 6.4 | 0.00 | 0.08 | 0.08 | 87 | 1027.7 |
| 20260509094310 | 14 | 193 | 0.0 | 4.8 | 0.00 | 0.08 | 0.08 | 88 | 1027.6 |
| 20260509093757 | 14 | 186 | 0.0 | 4.8 | 0.00 | 0.08 | 0.08 | 88 | 1027.6 |
| 20260509093306 | 14 | 127 | 0.0 | 4.8 | 0.00 | 0.08 | 0.08 | 88 | 1027.6 |
| 20260509092755 | 13 | 192 | 0.0 | 4.8 | 0.00 | 0.08 | 0.08 | 88 | 1027.6 |
| 20260509092238 | 13 | 199 | 0.0 | 3.2 | 0.00 | 0.08 | 0.08 | 89 | 1027.6 |
| 20260509091742 | 13 | 253 | 0.0 | 3.2 | 0.00 | 0.08 | 0.08 | 88 | 1027.6 |
| 20260509091241 | 13 | 184 | 0.0 | 3.2 | 0.00 | 0.08 | 0.08 | 89 | 1027.6 |
| 20260509090733 | 13 | 204 | 0.0 | 3.2 | 0.00 | 0.08 | 0.08 | 89 | 1027.5 |
| 20260509090242 | 13 | 132 | 0.0 | 0.0 | 0.00 | 0.08 | 0.08 | 88 | 1027.5 |
| 20260509085749 | 13 | 133 | 0.0 | 0.0 | 0.00 | 0.08 | 0.08 | 88 | 1027.4 |
| 20260509085257 | 13 | 111 | 0.0 | 3.2 | 0.00 | 0.08 | 0.08 | 88 | 1027.4 |
| 20260509084803 | 13 | 161 | 0.0 | 1.6 | 0.00 | 0.08 | 0.08 | 88 | 1027.3 |
| 20260509084257 | 13 | 163 | 0.0 | 1.6 | 0.00 | 0.08 | 0.08 | 88 | 1027.3 |
| 20260509083740 | 14 | 176 | 0.0 | 4.8 | 0.00 | 0.08 | 0.08 | 88 | 1027.3 |
| 20260509083235 | 14 | 145 | 0.0 | 4.8 | 0.00 | 0.08 | 0.08 | 88 | 1027.2 |
| 20260509082728 | 14 | 145 | 0.0 | 4.8 | 0.00 | 0.08 | 0.08 | 88 | 1027.2 |
| 20260509082232 | 14 | 134 | 0.0 | 4.8 | 0.00 | 0.08 | 0.08 | 88 | 1027.1 |
| 20260509081717 | 14 | 162 | 0.0 | 4.8 | 0.00 | 0.08 | 0.08 | 88 | 1027.2 |
| 20260509081225 | 14 | 158 | 0.0 | 4.8 | 0.00 | 0.08 | 0.08 | 88 | 1027.1 |
| 20260509080729 | 14 | 193 | 0.0 | 4.8 | 0.00 | 0.08 | 0.08 | 88 | 1027.1 |
| 20260509075557 | 14 | 146 | 0.0 | 4.8 | 0.00 | 0.08 | 0.08 | 87 | 1026.9 |
| 20260509074429 | 14 | 163 | 0.0 | 4.8 | 0.00 | 0.08 | 0.08 | 86 | 1026.7 |
| 20260509073923 | 15 | 185 | 0.0 | 4.8 | 0.00 | 0.08 | 0.08 | 86 | 1026.7 |
| 20260509073421 | 15 | 177 | 0.0 | 3.2 | 0.00 | 0.08 | 0.08 | 86 | 1026.6 |
| 20260509072904 | 15 | 129 | 0.0 | 4.8 | 0.00 | 0.08 | 0.08 | 86 | 1026.6 |
| 20260509072344 | 15 | 168 | 0.0 | 4.8 | 0.00 | 0.08 | 0.08 | 86 | 1026.5 |
| 20260509070530 | 15 | 174 | 1.6 | 9.7 | 0.00 | 0.08 | 0.08 | 85 | 1026.5 |
| 20260509070027 | 15 | 225 | 3.2 | 9.7 | 0.00 | 0.08 | 0.08 | 85 | 1026.4 |
| 20260509065531 | 15 | 172 | 3.2 | 9.7 | 0.00 | 0.08 | 0.08 | 84 | 1026.4 |
| 20260509064401 | 15 | 166 | 3.2 | 11.3 | 0.00 | 0.08 | 0.08 | 83 | 1026.4 |
| 20260509063902 | 15 | 130 | 3.2 | 11.3 | 0.00 | 0.08 | 0.08 | 83 | 1026.4 |
| 20260509063357 | 15 | 141 | 3.2 | 11.3 | 0.00 | 0.08 | 0.08 | 83 | 1026.3 |
| 20260509062234 | 16 | 134 | 3.2 | 9.7 | 0.00 | 0.08 | 0.08 | 83 | 1026.3 |
| 20260509061729 | 16 | 149 | 3.2 | 8.0 | 0.00 | 0.08 | 0.08 | 83 | 1026.3 |
| 20260509060606 | 16 | 184 | 1.6 | 8.0 | 0.00 | 0.08 | 0.08 | 83 | 1026.2 |
| 20260509055432 | 16 | 141 | 0.0 | 4.8 | 0.00 | 0.08 | 0.08 | 83 | 1026.2 |
| 20260509053631 | 16 | 133 | 0.0 | 6.4 | 0.00 | 0.08 | 0.08 | 84 | 1026.0 |
| 20260509053137 | 16 | 141 | 0.0 | 6.4 | 0.00 | 0.08 | 0.08 | 84 | 1026.1 |
| 20260509052623 | 16 | 181 | 1.6 | 6.4 | 0.00 | 0.08 | 0.08 | 83 | 1026.1 |
| 20260509052130 | 16 | 219 | 0.0 | 4.8 | 0.00 | 0.08 | 0.08 | 83 | 1026.1 |
| 20260509051002 | 17 | 137 | 0.0 | 1.6 | 0.00 | 0.08 | 0.08 | 85 | 1026.1 |
| 20260509050448 | 16 | 143 | 0.0 | 0.0 | 0.00 | 0.08 | 0.08 | 86 | 1026.0 |
| 20260509045947 | 16 | 143 | 0.0 | 0.0 | 0.00 | 0.08 | 0.08 | 86 | 1026.1 |
| 20260509045450 | 16 | 143 | 0.0 | 0.0 | 0.00 | 0.08 | 0.08 | 87 | 1026.2 |